^^
Franklin Riverside ( IFRANKLI3 Nearby PWS ) Historical Data
 
Daily Summary for February 21, 2018 Units:  Metric    English   Both
« Previous Day
Next Day »
Daily Weekly Monthly Yearly Custom
  Current: High: Low: Average:
Temperature: 8.1 °C 9.1 °C 8.1 °C 8.5 °C
Dew Point: 7.4 °C 8.2 °C 7.4 °C 7.8 °C
Humidity: 95% 96% 92% 95%
Wind Speed: 0.3km/h 0.6km/h 0.0km/h 0km/h
Wind Gust: 4.0km/h 4.0km/h - -
WindNW - - NW
Pressure: 1020.2 hPa 1022.2 hPa 1020.2 hPa -
Precipitation: 0.0 mm      
Historical Graphs
 
 
Tabular Data for February 21, 2018
Time Temperature Dew Point Pressure Wind Wind Speed Wind Gust Humidity Rainfall Rate (Hourly) solar
00:01 9.1 °C 8.0 °C 1022.2 hPa Calm     93% 0.0 mm 0.00 W/m2
00:06 9.0 °C 7.9 °C 1021.9 hPa Calm     93% 0.0 mm 0.00 W/m2
00:11 8.9 °C 8.0 °C 1021.9 hPa Calm     94% 0.0 mm 0.00 W/m2
00:16 8.9 °C 8.0 °C 1021.9 hPa Calm     94% 0.0 mm 0.00 W/m2
00:21 8.9 °C 7.7 °C 1021.6 hPa Calm     92% 0.0 mm 0.00 W/m2
00:26 8.9 °C 7.8 °C 1021.6 hPa Calm     93% 0.0 mm 0.00 W/m2
00:32 8.9 °C 7.8 °C 1021.6 hPa Calm     93% 0.0 mm 0.00 W/m2
00:37 8.9 °C 7.8 °C 1021.9 hPa Calm     93% 0.0 mm 0.00 W/m2
00:42 8.9 °C 8.0 °C 1021.9 hPa Calm     94% 0.0 mm 0.00 W/m2
00:47 8.9 °C 8.2 °C 1021.6 hPa Calm     95% 0.0 mm 0.00 W/m2
00:53 8.9 °C 8.2 °C 1021.9 hPa Calm     95% 0.0 mm 0.00 W/m2
00:58 8.9 °C 8.2 °C 1021.6 hPa Calm     95% 0.0 mm 0.00 W/m2
01:04 8.9 °C 8.2 °C 1021.9 hPa Calm     95% 0.0 mm 0.00 W/m2
01:09 8.9 °C 7.8 °C 1021.6 hPa Calm     93% 0.0 mm 0.00 W/m2
01:14 8.9 °C 7.8 °C 1021.6 hPa Calm     93% 0.0 mm 0.00 W/m2
01:20 8.9 °C 8.0 °C 1021.2 hPa Calm     94% 0.0 mm 0.00 W/m2
01:25 8.9 °C 8.0 °C 1021.6 hPa Calm     94% 0.0 mm 0.00 W/m2
01:31 8.9 °C 8.0 °C 1021.2 hPa Calm     94% 0.0 mm 0.00 W/m2
01:36 8.8 °C 8.1 °C 1021.6 hPa Calm     95% 0.0 mm 0.00 W/m2
01:41 8.8 °C 8.1 °C 1021.2 hPa Calm     95% 0.0 mm 0.00 W/m2
01:46 8.8 °C 8.1 °C 1021.2 hPa Calm     95% 0.0 mm 0.00 W/m2
01:51 8.8 °C 7.9 °C 1021.2 hPa Calm     94% 0.0 mm 0.00 W/m2
01:57 8.8 °C 7.9 °C 1021.2 hPa Calm     94% 0.0 mm 0.00 W/m2
02:02 8.7 °C 8.0 °C 1021.2 hPa Calm     95% 0.0 mm 0.00 W/m2
02:08 8.7 °C 8.0 °C 1021.2 hPa Calm     95% 0.0 mm 0.00 W/m2
02:13 8.7 °C 8.0 °C 1020.9 hPa Calm     95% 0.0 mm 0.00 W/m2
02:18 8.7 °C 8.0 °C 1021.2 hPa Calm     95% 0.0 mm 0.00 W/m2
02:24 8.6 °C 7.9 °C 1021.2 hPa Calm     95% 0.0 mm 0.00 W/m2
02:29 8.6 °C 7.9 °C 1021.2 hPa Calm     95% 0.0 mm 0.00 W/m2
02:34 8.6 °C 7.9 °C 1021.2 hPa Calm     95% 0.0 mm 0.00 W/m2
02:40 8.5 °C 7.9 °C 1021.2 hPa Calm     96% 0.0 mm 0.00 W/m2
02:45 8.5 °C 7.9 °C 1021.2 hPa Calm     96% 0.0 mm 0.00 W/m2
02:50 8.5 °C 7.9 °C 1021.2 hPa Calm     96% 0.0 mm 0.00 W/m2
02:56 8.5 °C 7.9 °C 1021.2 hPa Calm     96% 0.0 mm 0.00 W/m2
03:01 8.4 °C 7.8 °C 1020.9 hPa Calm     96% 0.0 mm 0.00 W/m2
03:06 8.4 °C 7.7 °C 1020.9 hPa Calm     95% 0.0 mm 0.00 W/m2
03:12 8.4 °C 7.7 °C 1020.9 hPa Calm     95% 0.0 mm 0.00 W/m2
03:17 8.4 °C 7.7 °C 1020.5 hPa Calm     95% 0.0 mm 0.00 W/m2
03:22 8.4 °C 7.7 °C 1020.5 hPa Calm     95% 0.0 mm 0.00 W/m2
03:28 8.4 °C 7.7 °C 1020.5 hPa Calm     95% 0.0 mm 0.00 W/m2
03:33 8.4 °C 7.7 °C 1020.5 hPa Calm     95% 0.0 mm 0.00 W/m2
03:38 8.4 °C 7.7 °C 1020.5 hPa Calm     95% 0.0 mm 0.00 W/m2
03:43 8.4 °C 7.7 °C 1020.5 hPa Calm     95% 0.0 mm 0.00 W/m2
03:48 8.4 °C 7.7 °C 1020.5 hPa Calm     95% 0.0 mm 0.00 W/m2
03:53 8.4 °C 7.7 °C 1020.5 hPa Calm     95% 0.0 mm 0.00 W/m2
03:59 8.4 °C 7.7 °C 1020.5 hPa Calm     95% 0.0 mm 0.00 W/m2
04:04 8.4 °C 7.7 °C 1020.5 hPa Calm     95% 0.0 mm 0.00 W/m2
04:09 8.4 °C 7.7 °C 1020.5 hPa Calm     95% 0.0 mm 0.00 W/m2
04:15 8.4 °C 7.7 °C 1020.5 hPa Calm     95% 0.0 mm 0.00 W/m2
04:20 8.3 °C 7.6 °C 1020.5 hPa Calm     95% 0.0 mm 0.00 W/m2
04:25 8.3 °C 7.7 °C 1020.5 hPa Calm     96% 0.0 mm 0.00 W/m2
04:30 8.2 °C 7.6 °C 1020.5 hPa Calm     96% 0.0 mm 0.00 W/m2
04:35 8.2 °C 7.5 °C 1020.5 hPa Calm     95% 0.0 mm 0.00 W/m2
04:40 8.3 °C 7.4 °C 1020.5 hPa Calm     94% 0.0 mm 0.00 W/m2
04:46 8.3 °C 7.4 °C 1020.2 hPa Calm     94% 0.0 mm 0.00 W/m2
04:51 8.3 °C 7.6 °C 1020.5 hPa Calm     95% 0.0 mm 0.00 W/m2
04:56 8.3 °C 7.6 °C 1020.5 hPa Calm     95% 0.0 mm 0.00 W/m2
05:02 8.3 °C 7.6 °C 1020.5 hPa Calm     95% 0.0 mm 0.00 W/m2
05:07 8.3 °C 7.6 °C 1020.5 hPa Calm     95% 0.0 mm 0.00 W/m2
05:12 8.3 °C 7.6 °C 1020.5 hPa Calm     95% 0.0 mm 0.00 W/m2
05:17 8.2 °C 7.5 °C 1020.5 hPa Calm     95% 0.0 mm 0.00 W/m2
05:22 8.2 °C 7.5 °C 1020.5 hPa NW 0.6 km/h 4.0 km/h 95% 0.0 mm 0.00 W/m2
05:27 8.2 °C 7.5 °C 1020.5 hPa Calm     95% 0.0 mm 0.00 W/m2
05:32 8.1 °C 7.4 °C 1020.5 hPa Calm     95% 0.0 mm 0.00 W/m2
05:37 8.1 °C 7.5 °C 1020.5 hPa Calm     96% 0.0 mm 0.00 W/m2
05:42 8.1 °C 7.4 °C 1020.2 hPa Calm     95% 0.0 mm 0.00 W/m2
05:47 8.1 °C 7.4 °C 1020.2 hPa Calm     95% 0.0 mm 0.00 W/m2
05:52 8.1 °C 7.4 °C 1020.2 hPa NW 0.3 km/h 4.0 km/h 95% 0.0 mm 0.00 W/m2
Franklin Riverside, Huon Valley, TAS
Compliments of Weather Underground - 1.75 mb